Probability
0 0 0 0 0 0 0 0 0 0 0 0 0 0 0 0 0 0 0 0 0 0 0 0 0 0 0 0 0 0 0 0 1 1 2 2 4 9 17 25 29 31 31 29
0 0 0 0 0 0 0 0 0 0 0 0 0 0 0 0 0 0 0 0 0 0 0 0 0 0 0 0 0 0 0 0 1 2 2 3 5 11 17 25 31 33 34 35
0 0 0 0 0 0 0 0 0 0 0 0 0 0 0 0 0 0 0 0 0 0 0 0 0 0 0 0 0 0 0 1 2 3 4 4 6 11 17 25 32 34 35 39
0 0 0 0 0 0 0 0 0 0 0 0 0 0 0 0 0 0 0 0 0 0 0 0 0 0 0 0 0 0 1 2 3 5 6 6 7 9 13 21 28 31 33 38
0 0 0 0 0 0 0 0 0 0 0 0 0 0 0 0 0 0 0 0 0 0 0 0 0 0 0 0 0 0 1 2 3 4 5 6 7 9 11 15 20 26 30 32
0 0 0 0 0 0 0 0 0 0 0 0 0 0 0 0 0 0 0 0 0 0 0 0 0 0 0 0 0 0 1 1 1 1 2 3 5 7 9 10 13 20 25 25
0 0 0 0 0 0 0 0 0 0 0 0 0 0 0 0 0 0 0 0 0 0 0 0 0 0 0 0 0 0 0 0 0 0 0 0 2 4 6 8 10 15 20 22
0 0 0 0 0 0 0 0 0 0 0 0 0 0 0 0 0 0 0 0 0 0 0 0 0 0 0 0 0 0 0 0 0 0 0 0 0 1 2 4 7 12 17 19
0 0 0 0 0 0 0 0 0 0 0 0 0 0 0 0 0 0 0 0 0 0 0 0 0 0 0 0 0 0 0 0 0 0 0 0 0 0 0 2 4 6 9 11
0 0 0 0 0 0 0 0 0 0 0 0 0 0 0 0 0 0 0 0 0 0 0 0 0 0 0 0 0 0 0 0 0 0 0 0 0 0 0 0 1 1 2 2
0 0 0 0 0 0 0 0 0 0 0 0 0 0 0 0 0 0 0 0 0 0 0 0 0 0 0 0 0 0 0 0 0 0 0 0 0 0 0 0 0 0 0 0
0 0 0 0 0 0 0 0 0 0 0 0 0 0 0 0 0 0 0 0 0 0 0 0 0 0 0 0 0 0 0 0 0 0 0 0 0 0 0 0 0 0 0 0
0 0 0 0 0 0 0 0 0 0 0 0 0 0 0 0 0 0 0 0 0 0 0 0 0 0 0 0 0 0 0 0 0 0 0 0 0 0 0 0 0 0 0 0
0 0 0 0 0 0 0 0 0 0 0 0 0 0 0 0 0 0 0 0 0 0 0 0 0 0 0 0 0 0 0 0 0 0 0 0 0 0 0 0 0 0 0 0
0 0 0 0 0 0 0 0 0 0 0 0 0 0 0 0 0 0 0 0 0 0 0 0 0 0 0 0 0 0 0 0 0 0 0 0 0 0 0 0 0 0 0 0
0 0 0 0 0 0 0 0 0 0 0 0 0 0 0 0 0 0 0 0 0 0 0 0 0 0 0 0 0 0 0 0 0 0 0 0 0 0 0 0 0 0 0 0
0 0 0 0 0 0 0 0 0 0 0 0 0 0 0 0 0 0 0 0 0 0 0 0 0 0 0 0 0 0 0 0 0 0 0 0 0 0 0 0 0 0 0 0
0 0 0 0 0 0 0 0 0 0 0 0 0 0 0 0 0 0 0 0 0 0 0 0 0 0 0 0 0 0 0 0 0 0 0 0 0 0 0 0 0 0 0 0
0 0 0 0 0 0 0 0 0 0 0 0 0 0 0 0 0 0 0 0 0 0 0 0 0 0 0 0 0 0 0 0 0 0 0 0 0 0 0 0 0 0 0 0
0 0 0 0 0 0 0 0 0 0 0 0 0 0 0 0 0 0 0 0 0 0 0 0 0 0 0 0 0 0 0 0 0 0 0 0 0 0 0 0 0 0 0 0
0 0 0 0 0 0 0 0 0 0 0 0 0 0 0 0 0 0 0 0 0 0 0 0 0 0 0 0 0 0 0 0 0 0 0 0 0 0 0 0 0 0 0 0
0 0 0 0 0 0 0 0 0 0 0 0 0 0 0 0 0 0 0 0 0 0 0 0 0 0 0 0 0 0 0 0 0 0 0 0 0 0 0 0 0 0 0 0
0 0 0 0 0 0 0 0 0 0 0 0 0 0 0 0 0 0 0 0 0 0 0 0 0 0 0 0 0 0 0 0 0 0 0 0 0 0 0 0 0 0 0 0
0 0 0 0 0 0 0 0 0 0 0 0 0 0 0 0 0 0 0 0 0 0 0 0 0 0 0 0 0 0 0 0 0 0 0 0 0 0 0 0 0 0 0 0
0 0 0 0 0 0 0 0 0 0 0 0 0 0 0 0 0 0 0 0 0 0 0 0 0 0 0 0 0 0 0 0 0 0 0 0 0 0 0 0 0 0 0 0
0 0 0 0 0 0 0 0 0 0 0 0 0 0 0 0 0 0 0 0 0 0 0 0 0 0 0 0 0 0 0 0 0 0 0 0 0 0 0 0 0 0 0 0
Wind_Speed
5 6 7 8 7 4 4 4 0 5 4 5 9 8 7 8 11 12 12 13 13 14 14 13 12 11 11 11 11 10 10 9 8 6 6 6 5 5 5 6 8 9 10 10
6 8 7 5 3 2 3 4 3 6 5 4 8 7 6 7 10 12 13 14 14 15 15 15 14 13 12 12 11 11 10 10 9 6 7 6 7 6 6 5 7 10 11 11
8 7 4 3 5 1 1 3 1 4 6 5 5 5 5 6 8 11 13 13 14 15 17 17 16 14 14 12 12 10 11 10 9 9 6 6 6 6 5 5 5 7 9 11
9 5 3 3 6 6 1 3 1 5 7 4 4 3 6 6 9 13 14 15 15 16 16 16 16 15 14 13 11 11 10 10 9 8 7 8 6 7 6 5 5 5 6 8
7 6 6 5 5 6 4 3 3 6 5 5 0 4 6 6 11 14 15 15 15 15 15 16 15 14 13 13 11 10 9 9 8 7 7 7 6 6 5 5 5 4 4 5
8 4 6 6 2 3 1 4 5 5 6 4 3 4 5 8 12 13 14 15 15 15 14 14 14 14 13 12 11 10 9 9 9 8 7 6 7 6 6 5 4 3 2 2
7 6 4 4 2 1 3 6 5 6 5 3 2 1 5 8 9 10 12 13 13 13 13 13 15 14 14 14 13 12 11 10 10 9 8 7 7 6 6 5 4 3 1 1
5 5 6 6 6 4 3 5 5 5 1 4 2 1 5 5 6 8 9 11 12 13 13 13 13 13 13 13 13 12 12 11 11 9 8 8 8 5 4 5 5 4 3 2
2 6 4 5 6 4 2 2 4 4 1 2 4 3 4 3 6 8 10 11 12 13 13 12 12 12 12 13 13 12 12 11 11 11 10 9 9 8 8 7 7 5 5 4
1 6 4 1 2 6 5 3 3 4 3 1 3 1 2 5 7 8 9 11 12 12 13 13 12 11 10 10 10 11 11 10 10 10 9 8 9 9 8 8 9 8 7 7
1 4 5 3 5 6 1 0 1 0 3 3 0 4 4 4 5 7 8 9 10 11 11 11 11 10 10 10 10 10 10 11 11 11 10 10 10 10 10 9 10 9 8 8
1 1 5 5 4 3 3 3 3 3 2 2 1 4 4 1 2 4 6 7 9 9 9 9 10 10 10 10 10 10 10 11 10 10 10 11 10 10 10 10 10 9 9 9
3 4 5 6 6 4 1 2 1 1 1 1 1 4 4 1 1 2 4 6 7 8 8 9 9 9 9 9 9 10 10 10 10 9 10 10 11 10 10 10 10 10 10 9
3 1 3 4 5 3 3 3 3 4 2 1 1 1 2 2 1 1 3 5 7 7 8 9 9 8 8 8 8 9 9 10 9 9 10 10 10 10 10 10 10 10 10 10
5 3 4 4 3 2 2 4 5 5 3 3 1 2 2 2 2 2 3 4 6 7 9 9 9 8 7 7 7 7 8 8 8 9 9 10 9 9 9 9 9 10 10 11
3 4 4 4 4 4 7 7 7 6 5 5 4 5 3 3 4 4 3 3 5 7 9 10 9 9 7 6 5 6 7 7 7 8 8 8 8 9 8 9 9 10 10 10
5 5 4 2 3 6 8 9 12 8 8 7 7 4 6 6 5 4 3 4 5 6 8 9 9 9 7 6 5 5 6 6 7 8 8 8 8 8 8 8 9 9 9 10
4 4 2 3 4 5 5 3 7 9 9 10 7 5 7 6 4 5 5 5 5 6 7 8 9 8 7 5 4 3 3 4 6 7 7 7 7 7 7 7 8 8 8 8
3 4 4 3 4 5 3 6 7 9 8 13 13 10 9 6 5 7 7 6 5 5 6 7 7 7 7 6 5 4 3 4 5 6 7 7 7 6 7 7 8 8 7 7
2 5 5 4 5 3 3 7 7 6 7 10 15 14 11 10 7 5 6 5 4 4 5 6 6 6 6 6 5 4 4 4 5 5 6 6 6 6 6 7 7 7 6 6
6 6 7 7 6 5 4 9 10 7 0 9 15 15 14 13 5 6 6 5 3 3 3 4 5 4 5 5 5 5 5 5 4 4 4 5 5 6 6 6 6 6 6 6
7 6 6 6 6 3 11 12 11 5 4 8 14 15 14 11 7 6 6 5 4 3 2 3 4 3 3 4 5 5 6 4 3 3 4 5 5 5 5 5 6 6 6 6
7 6 3 7 4 4 14 11 8 4 7 9 13 14 14 12 11 9 7 6 4 3 2 2 3 3 2 4 5 5 4 2 3 4 4 4 5 5 4 5 5 5 5 5
6 4 6 8 9 8 13 13 9 8 8 8 12 14 14 14 12 10 8 7 6 5 3 2 3 2 2 3 3 3 2 1 3 3 3 3 3 4 4 3 4 4 5 5
4 8 7 9 8 6 11 16 16 12 10 9 12 14 15 14 12 11 9 8 6 5 4 4 3 2 2 2 2 2 1 2 4 4 3 2 2 2 2 3 3 4 5 6
9 11 9 7 5 6 4 8 17 17 15 13 14 15 15 14 13 12 9 8 7 6 6 5 4 3 2 1 1 1 0 3 4 4 3 2 1 1 0 1 2 2 1 3
Wind_Direction
40 61 49 27 13 350 318 291 21 86 96 85 100 98 74 43 29 18 9 3 357 351 348 348 343 338 334 331 326 322 320 322 320 315 312 310 300 290 270 251 241 236 237 239
118 69 38 20 12 313 285 269 137 112 103 116 121 99 75 47 29 18 7 1 356 350 346 346 343 341 336 331 325 321 322 320 316 309 303 292 292 283 277 270 254 240 233 231
84 68 35 35 36 350 14 325 160 145 127 135 161 146 72 55 29 22 14 4 0 355 349 345 342 340 334 332 329 323 322 315 311 308 300 296 290 280 271 265 258 248 239 232
82 66 54 54 42 346 156 39 282 192 202 148 252 212 75 25 21 17 11 5 1 357 352 348 345 341 338 336 331 324 322 317 315 310 300 296 289 287 289 288 276 264 251 241
98 62 39 36 29 349 11 339 248 215 212 180 142 269 82 24 10 8 5 2 360 358 356 354 352 347 345 341 336 329 325 321 319 314 306 297 291 288 289 285 278 263 249 245
98 81 32 18 21 358 293 172 150 180 210 199 26 307 58 22 360 354 357 0 360 359 358 358 357 357 355 353 348 342 337 333 334 330 322 316 313 308 307 303 296 281 254 238
124 91 61 358 281 159 238 234 209 196 203 109 56 327 57 21 3 353 354 358 1 1 2 360 1 0 358 359 359 355 351 348 347 347 350 343 335 329 326 325 322 322 317 281
176 111 49 24 4 348 10 301 309 308 8 122 166 70 74 29 9 3 7 6 7 9 8 5 4 2 360 0 1 3 4 1 355 355 359 360 0 356 356 2 8 12 8 4
156 106 99 49 26 332 311 33 341 314 82 176 133 124 131 37 21 16 13 13 11 11 11 12 9 8 6 5 6 7 9 9 6 6 9 12 13 17 18 19 22 25 26 27
94 121 106 138 208 64 15 350 261 273 276 214 147 149 36 15 9 9 11 10 9 9 9 12 12 10 7 8 9 11 12 11 11 12 15 17 17 21 22 26 28 26 29 35
221 137 129 143 34 18 27 74 3 20 329 303 214 99 56 6 358 355 3 5 6 6 4 7 9 10 11 14 16 15 17 18 15 15 18 23 24 23 28 31 29 28 31 37
351 241 120 98 80 12 23 13 308 308 90 336 323 101 96 354 343 341 352 1 4 1 360 2 8 13 15 16 18 18 19 19 18 17 23 27 27 29 32 32 29 29 33 35
177 228 171 167 171 180 136 69 352 344 175 213 255 105 129 232 293 341 347 352 356 356 358 3 8 11 14 16 17 21 20 19 20 21 28 31 30 31 33 33 30 32 34 35
248 234 324 21 69 129 159 173 219 258 261 218 242 130 167 192 224 318 337 341 345 353 358 0 2 7 11 17 18 22 20 17 19 24 28 31 32 34 36 37 33 34 36 36
246 140 111 99 120 186 221 207 210 239 274 275 210 226 216 189 219 279 307 322 337 349 356 359 357 0 7 13 17 25 23 19 19 25 30 30 33 37 36 39 37 37 37 38
221 167 167 178 196 241 254 235 222 231 232 235 237 235 201 192 214 239 258 298 324 343 349 352 352 355 360 5 8 22 26 21 21 28 31 30 31 36 36 36 34 34 36 36
186 192 225 205 194 257 251 224 209 213 212 215 221 200 172 196 213 232 250 277 309 332 339 345 349 352 350 349 351 11 20 15 21 29 32 31 30 31 29 31 32 30 32 33
199 203 248 265 239 254 88 102 199 217 223 215 222 193 192 202 207 230 245 262 289 318 332 342 344 349 351 346 339 358 3 10 23 31 32 30 28 29 30 31 30 28 30 34
259 221 245 263 275 277 187 185 192 212 237 212 211 205 197 197 219 223 218 236 271 306 321 331 337 339 350 360 349 339 12 18 28 34 33 30 30 32 31 29 27 25 23 28
192 237 250 248 271 264 120 149 173 208 246 198 198 198 190 189 213 172 167 207 247 288 316 331 333 342 1 5 353 348 14 29 40 42 42 38 36 38 34 30 23 24 24 25
190 204 229 243 262 265 128 147 169 213 350 163 186 190 187 197 199 125 159 197 233 275 310 320 329 349 3 355 347 3 30 46 58 62 55 49 46 46 39 32 28 23 26 26
209 202 210 215 235 247 144 164 202 229 106 172 183 185 188 193 183 168 188 204 221 243 281 317 329 352 4 357 346 13 37 53 92 99 78 66 55 46 48 42 32 28 24 30
223 226 229 226 257 65 177 198 210 219 194 184 184 183 186 189 189 194 200 205 213 230 249 298 322 330 356 12 358 9 39 84 136 131 106 88 80 64 46 40 36 33 29 25
202 208 238 254 256 233 213 220 215 213 212 193 186 183 187 191 192 196 199 201 207 216 222 249 277 306 13 22 13 5 22 171 168 145 127 119 91 85 75 43 32 30 25 20
209 186 224 249 261 241 226 221 214 207 209 196 190 188 190 193 194 196 199 201 206 207 206 222 250 294 335 354 16 26 9 200 180 164 159 140 107 82 68 68 36 19 39 21
197 198 208 242 238 219 212 201 204 202 202 197 191 191 195 197 196 197 200 198 201 204 205 213 224 236 253 309 356 38 343 216 201 184 177 175 162 155 9 38 129 147 1 51